(155982) = 2001 QE247

Discovered at Socorro on 2001-08-24 by LINEAR.

Orbit

Orbit type: Main Belt

Note: WebGL enabled browser required.

epoch2024-03-31.0
epoch JD2460400.5
perihelion date2022-01-08.47403
perihelion JD2459587.97403
argument of perihelion (°)183.68734
ascending node (°)147.02054
inclination (°)2.15103
eccentricity0.2388197
perihelion distance (AU)1.7293065
Tisserand w.r.t. Jupiter3.6
ΔV w.r.t. Earth (km/sec)8.1
semimajor axis (AU)2.2718749
mean anomaly (°)233.86471
mean daily motion (°/day)0.28782430
aphelion distance (AU)2.814
period (years)3.42
P-vector [x]0.87211192
P-vector [y]-0.44796425
P-vector [z]-0.19684723
Q-vector [x]0.48887971
Q-vector [y]0.81452762
Q-vector [z]0.31231615
absolute magnitude17.02
phase slope0.15
uncertainty0
referenceE2024-GI3
observations used705
oppositions18
arc length (days)8826
first opposition used2000
last opposition used2024
residual rms (arc-secs)0.72
perturbers coarse indicatorM-v
perturbers precise indicator003Ek
first observation date used2000-02-12.0
last observation date used2024-04-12.0
computer nameMPCLINUX
JD of orbit computation2456847.770828
perihelion JD uncertainty (days)2.6600E-05
argument of perihelion uncertainty (°)8.5587E-05
ascending node uncertainty (°)8.5371E-05
inclination uncertainty (°)2.8857E-06
eccentricity uncertainty 3.2536E-08
perihelion distance uncertainty (AU)7.8157E-08
Minimum Orbit Intersection Distances (in AU)
for orbit epoch: 2460400.5, reference: E2024-GI3
Mercury1.32371
Venus1.00323
Earth0.71834
Mars0.35017
Jupiter2.53738
Saturn6.38688
Uranus15.636
Neptune27.4883

Observations

713 total observations over interval: 2000 02 12.451510 – 2024 03 17.517765
These data are available for download (format description).

Date (UT) J2000 RA J2000 Dec Magn Location Ref
2000 02 12.451510 12 38 15.731 -02 37 29.53 21.45 V 645 – Apache Point-Sloan Digital Sky Survey MPS 108995
2000 02 12.454982 12 38 15.680 -02 37 28.85 22.58   645 – Apache Point-Sloan Digital Sky Survey MPS 108995
2001 08 05.45956 01 34 52.10 +08 25 57.6 19.9   644 – Palomar Mountain/NEAT MPS 37881
2001 08 05.47020 01 34 52.83 +08 26 00.3 20.1   644 – Palomar Mountain/NEAT MPS 37881
2001 08 05.48089 01 34 53.53 +08 26 03.5 20.1   644 – Palomar Mountain/NEAT MPS 37881
2001 08 24.41342 01 52 04.24 +09 19 11.0 19.6   704 – Lincoln Laboratory ETS, New Mexico MPS 34895
2001 08 24.42635 01 52 04.70 +09 19 11.8 19.5   704 – Lincoln Laboratory ETS, New Mexico MPS 34895
2001 08 24.43939 01 52 05.11 +09 19 12.6 19.9   704 – Lincoln Laboratory ETS, New Mexico MPS 34895
2001 08 24.45234 01 52 05.50 +09 19 13.1 19.5   704 – Lincoln Laboratory ETS, New Mexico MPS 34895
2001 08 25.31858 01 52 36.15 +09 19 49.4 19.5   644 – Palomar Mountain/NEAT MPS 34895
2001 08 25.34396 01 52 36.95 +09 19 50.3 19.4   644 – Palomar Mountain/NEAT MPS 34895
2001 08 25.36499 01 52 37.62 +09 19 51.0 19.4   644 – Palomar Mountain/NEAT MPS 34895
2001 09 16.34641 01 55 49.09 +08 41 07.4 18.8   644 – Palomar Mountain/NEAT MPS 37881
2001 09 16.36773 01 55 48.63 +08 41 02.8 19.6   644 – Palomar Mountain/NEAT MPS 37881
2001 09 16.38919 01 55 48.21 +08 40 57.1 19.2   644 – Palomar Mountain/NEAT MPS 37881
2001 09 17.32274 01 55 31.33 +08 37 03.9 18.5 R 699 – Lowell Observatory-LONEOS MPS 37881
2001 09 17.35020 01 55 30.71 +08 36 58.3   699 – Lowell Observatory-LONEOS MPS 37881
2001 09 17.35721 01 55 30.58 +08 36 54.8 19.4   704 – Lincoln Laboratory ETS, New Mexico MPS 36149
2001 09 17.37129 01 55 30.28 +08 36 51.2 19.1   704 – Lincoln Laboratory ETS, New Mexico MPS 36149
2001 09 17.37773 01 55 30.08 +08 36 50.8   699 – Lowell Observatory-LONEOS MPS 37881
2001 09 17.38513 01 55 29.93 +08 36 47.3 19.7   704 – Lincoln Laboratory ETS, New Mexico MPS 36149
2001 09 17.40532 01 55 29.42 +08 36 43.8   699 – Lowell Observatory-LONEOS MPS 37881
2001 09 19.33108 01 54 48.06 +08 28 13.3 19.0   704 – Lincoln Laboratory ETS, New Mexico MPS 36149
2001 09 19.34522 01 54 47.66 +08 28 09.4 19.1   704 – Lincoln Laboratory ETS, New Mexico MPS 36149
2001 09 19.35936 01 54 47.27 +08 28 05.3 19.1   704 – Lincoln Laboratory ETS, New Mexico MPS 36149
2001 09 19.37349 01 54 46.87 +08 28 01.3 18.7   704 – Lincoln Laboratory ETS, New Mexico MPS 36149
2001 09 19.38764 01 54 46.49 +08 27 57.3 18.8   704 – Lincoln Laboratory ETS, New Mexico MPS 36149
2001 09 21.40746 01 53 53.90 +08 18 17.2 18.3   704 – Lincoln Laboratory ETS, New Mexico MPS 36149
2001 09 21.42170 01 53 53.46 +08 18 13.0 18.6   704 – Lincoln Laboratory ETS, New Mexico MPS 36149
2001 09 21.43595 01 53 53.00 +08 18 08.6 18.6   704 – Lincoln Laboratory ETS, New Mexico MPS 36149
2001 09 21.45021 01 53 52.54 +08 18 04.3 18.7   704 – Lincoln Laboratory ETS, New Mexico MPS 36149
2001 09 21.46447 01 53 52.10 +08 17 59.8 18.6   704 – Lincoln Laboratory ETS, New Mexico MPS 36149
2001 09 26.33637 01 51 11.51 +07 52 03.1 18.1   704 – Lincoln Laboratory ETS, New Mexico MPS 49400
2001 09 26.35107 01 51 10.87 +07 51 58.2 18.8   704 – Lincoln Laboratory ETS, New Mexico MPS 49400
2001 09 26.36565 01 51 10.27 +07 51 53.4 18.4   704 – Lincoln Laboratory ETS, New Mexico MPS 49400
2001 09 26.38023 01 51 09.72 +07 51 48.4 19.0   704 – Lincoln Laboratory ETS, New Mexico MPS 49400
2001 09 26.39483 01 51 09.09 +07 51 43.7 18.7   704 – Lincoln Laboratory ETS, New Mexico MPS 49400
2001 10 07.36635 01 42 46.92 +06 44 04.1 18.7   644 – Palomar Mountain/NEAT MPS 37881
2001 10 07.38762 01 42 45.75 +06 43 55.7 19.2   644 – Palomar Mountain/NEAT MPS 37881
2001 10 07.40890 01 42 44.57 +06 43 47.3 19.0   644 – Palomar Mountain/NEAT MPS 37881
2001 10 12.26753 01 38 23.56 +06 12 16.4 18.1 R 699 – Lowell Observatory-LONEOS MPS 37881
2001 10 12.29090 01 38 22.15 +06 12 09.0   699 – Lowell Observatory-LONEOS MPS 37881
2001 10 12.31435 01 38 20.80 +06 11 58.0   699 – Lowell Observatory-LONEOS MPS 37881
2001 10 12.33786 01 38 19.44 +06 11 49.7   699 – Lowell Observatory-LONEOS MPS 37881
2001 10 13.24948 01 37 29.41 +06 05 59.4 18.3   704 – Lincoln Laboratory ETS, New Mexico MPS 37881
2001 10 13.26512 01 37 28.46 +06 05 53.0 18.7   704 – Lincoln Laboratory ETS, New Mexico MPS 37881
2001 10 13.28087 01 37 27.58 +06 05 47.8 18.9   704 – Lincoln Laboratory ETS, New Mexico MPS 37881
2001 10 13.29653 01 37 26.61 +06 05 41.0 18.4   704 – Lincoln Laboratory ETS, New Mexico MPS 37881
2001 10 13.31243 01 37 25.67 +06 05 35.6 18.8   704 – Lincoln Laboratory ETS, New Mexico MPS 37881
2001 10 16.25131 01 34 43.10 +05 46 59.4 18.2   704 – Lincoln Laboratory ETS, New Mexico MPS 37881
2001 10 16.26703 01 34 42.14 +05 46 53.4 18.5   704 – Lincoln Laboratory ETS, New Mexico MPS 37881
2001 10 16.28275 01 34 41.20 +05 46 47.6 18.4   704 – Lincoln Laboratory ETS, New Mexico MPS 37881
2001 10 16.29848 01 34 40.33 +05 46 41.5 18.3   704 – Lincoln Laboratory ETS, New Mexico MPS 37881
2001 10 16.31422 01 34 39.38 +05 46 35.5 18.5   704 – Lincoln Laboratory ETS, New Mexico MPS 37881
2001 10 18.29475 01 32 50.34 +05 34 28.9 18.1   644 – Palomar Mountain/NEAT MPS 40344
2001 10 18.31934 01 32 48.92 +05 34 20.0 18.0   644 – Palomar Mountain/NEAT MPS 40344
2001 10 18.34212 01 32 47.59 +05 34 11.7 18.1   644 – Palomar Mountain/NEAT MPS 40344
2001 10 20.26964 01 31 02.99 +05 22 47.9 17.3   704 – Lincoln Laboratory ETS, New Mexico MPS 40344
2001 10 20.28608 01 31 02.04 +05 22 41.8 17.6   704 – Lincoln Laboratory ETS, New Mexico MPS 40344
2001 10 20.30250 01 31 01.11 +05 22 36.3 17.5   704 – Lincoln Laboratory ETS, New Mexico MPS 40344
2001 10 20.31894 01 31 00.16 +05 22 30.8 17.4   704 – Lincoln Laboratory ETS, New Mexico MPS 40344
2001 10 20.33538 01 30 59.23 +05 22 24.8 17.5   704 – Lincoln Laboratory ETS, New Mexico MPS 40344
2001 10 22.20420 01 29 20.09 +05 11 49.3 18.6   704 – Lincoln Laboratory ETS, New Mexico MPS 40344
2001 10 22.22064 01 29 19.11 +05 11 42.3 19.2   704 – Lincoln Laboratory ETS, New Mexico MPS 40344
2001 10 22.23708 01 29 18.31 +05 11 38.1 18.9   704 – Lincoln Laboratory ETS, New Mexico MPS 40344
2001 10 22.25357 01 29 17.39 +05 11 33.1 19.3   704 – Lincoln Laboratory ETS, New Mexico MPS 40344
2001 10 23.26277 01 28 24.74 +05 06 02.4 18.6   704 – Lincoln Laboratory ETS, New Mexico MPS 40344
2001 10 23.27917 01 28 23.85 +05 05 56.6 18.6   704 – Lincoln Laboratory ETS, New Mexico MPS 40344
2001 10 23.29557 01 28 22.95 +05 05 51.4 18.9   704 – Lincoln Laboratory ETS, New Mexico MPS 40344
2001 10 23.31198 01 28 22.02 +05 05 45.8 18.7   704 – Lincoln Laboratory ETS, New Mexico MPS 40344
2001 10 23.32840 01 28 21.12 +05 05 40.6 18.6   704 – Lincoln Laboratory ETS, New Mexico MPS 40344
2001 10 24.22808 01 27 35.41 +05 00 54.9 18.7 V 691 – Steward Observatory, Kitt Peak-Spacewatch MPS 40344
2001 10 24.24669 01 27 34.34 +05 00 49.0 18.5   704 – Lincoln Laboratory ETS, New Mexico MPS 40344
2001 10 24.24978 01 27 34.23 +05 00 48.1 18.7 V 691 – Steward Observatory, Kitt Peak-Spacewatch MPS 40344
2001 10 24.26322 01 27 33.42 +05 00 43.9 18.5   704 – Lincoln Laboratory ETS, New Mexico MPS 40344
2001 10 24.27124 01 27 33.07 +05 00 41.5 18.7 V 691 – Steward Observatory, Kitt Peak-Spacewatch MPS 40344
2001 10 24.27976 01 27 32.53 +05 00 38.6 18.7   704 – Lincoln Laboratory ETS, New Mexico MPS 40344
2001 10 24.29630 01 27 31.62 +05 00 33.6 18.8   704 – Lincoln Laboratory ETS, New Mexico MPS 40344
2001 10 24.31285 01 27 30.73 +05 00 28.2 18.8   704 – Lincoln Laboratory ETS, New Mexico MPS 40344
2001 11 08.36553 01 17 16.85 +04 03 50.8 19.5   644 – Palomar Mountain/NEAT MPS 40344
2001 11 08.37621 01 17 16.50 +04 03 48.7 19.7   644 – Palomar Mountain/NEAT MPS 40344
2001 11 08.38677 01 17 16.19 +04 03 47.6 19.5   644 – Palomar Mountain/NEAT MPS 40344
2001 11 18.21708 01 14 08.01 +03 54 07.3 19.8   704 – Lincoln Laboratory ETS, New Mexico MPS 43726
2001 11 18.23199 01 14 07.80 +03 54 06.1 19.7   704 – Lincoln Laboratory ETS, New Mexico MPS 43726
2001 11 18.24688 01 14 07.64 +03 54 07.0 20.1   704 – Lincoln Laboratory ETS, New Mexico MPS 43726
2001 11 18.27670 01 14 07.18 +03 54 06.6 20.4   704 – Lincoln Laboratory ETS, New Mexico MPS 43726
